Skip Page Navigation
NASA JPL Caltech
NASA Logo - Jet Propulsion Laboratory + View the NASA Portal
+ Center for Near-Earth Object Studies
JPL Home Earth Solar System Stars & Galaxies Technology
JPL Solar System Dynamics
BODIES ORBITS EPHEMERIDES TOOLS PHYSICAL DATA DISCOVERY FAQ SITE MAP
JPL Small-Body Database Browser
Search: [ help ]  
351440 (2005 HX2)
Classification: Main-belt Asteroid          SPK-ID: 2351440
Ephemeris | Orbit Diagram | Orbital Elements | Mission Design | Physical Parameters | Discovery Circumstances ]

[ hide orbit diagram ]

For accurate long-term ephemerides, please instead use our Horizons system.This orbit viewer was implemented using two-body methods, and hence should not be used for determining accurate long-term trajectories (over several years or decades) or planetary encounter circumstances.


[ revert to old Java-based viewer ]

Orbital Elements at Epoch 2459000.5 (2020-May-31.0) TDB
Reference: JPL 12 (heliocentric ecliptic J2000)
 Element Value Uncertainty (1-sigma)   Units 
e .1390856503817891 9.357e-08  
a 2.528548214235999 2.1468e-08 au
q 2.176863441337273 2.4115e-07 au
i 8.077677966508356 9.4037e-06 deg
node 221.9378419541916 3.7609e-05 deg
peri 337.3158024850431 4.2957e-05 deg
M 288.1716956508744 1.9855e-05 deg
tp 2459293.520765776219
(2021-Mar-20.02076578)
8.2422e-05 TDB
period 1468.60595743303
4.02
1.8703e-05
5.121e-08
d
yr
n .245130423295601 3.1218e-09 deg/d
Q 2.880232987134724 2.4453e-08 au
  Orbit Determination Parameters
   # obs. used (total)      148  
   data-arc span      6790 days (18.59 yr)  
   first obs. used      2001-04-24  
   last obs. used      2019-11-26  
   planetary ephem.      DE431  
   SB-pert. ephem.      SB431-N16  
   condition code      0  
   norm. resid. RMS      .61967  
   source      ORB  
   producer      Otto Matic  
   solution date      2019-Dec-14 20:20:18  

Additional Information
 Earth MOID = 1.17621 au 
 Jupiter MOID = 2.09484 au 
 T_jup = 3.425 
[ show covariance matrix ]

Ephemeris | Orbit Diagram | Orbital Elements | Mission Design | Physical Parameters | Discovery Circumstances ]

Physical Parameter Table
Parameter Symbol Value Units Sigma Reference Notes
absolute magnitude H 17.1   n/a MPO455543  

351440 (2005 HX2)          Discovered 2005-Apr-17 by Spacewatch at Kitt Peak
Reference: 20130127/Numbers.arcLast Updated: 2013-01-31
Ephemeris | Orbit Diagram | Orbital Elements | Mission Design | Physical Parameters | Discovery Circumstances ]
ABOUT SSD CREDITS/AWARDS PRIVACY/COPYRIGHT GLOSSARY LINKS
FirstGov 2020-Aug-06 22:53 UT
(server date/time)  
NASA Home Page
Site Manager:   Ryan S. Park
Webmaster  Alan B. Chamberlin